Погода в Каякенте

Россия / Республика Дагестан     42°23′10″N   47°54′19″E
темп.,
°C
ветер,
м/с
пор.,
м/с
влажн.,
%
обл.,
%
осадки,
мм/ч
давл.,
гПа
погр.,
м
11 мая, вт
вт1100:00+12юз22565 0.0 102174
03:00+12ююз22545 0.0 1020102
06:00+12юв46625 0.0 1020360
09:00+13юв810565 0.0 1019712
12:00+13вюв911664 0.0 1017874
15:00+13вюв81069100 0.0 1017749
18:00+13юв79731 0.0 1016598
21:00+12ююв45750 0.0 1016331
12 мая, ср
ср1200:00+12ююв22740 0.0 1015188
03:00+12всв12730 0.0 1015235
06:00+13сз22710 0.0 1015174
09:00+14с44690 0.0 1016386
12:00+14с56710 0.0 1016453
15:00+15с55760 0.0 1015359
18:00+14с45800 0.0 1016243
21:00+14сз33830 0.0 101665
13 мая, чт
чт1300:00+14з22820 0.0 101525
03:00+14ююв22820 0.0 101430
06:00+14ю34810 0.0 1014109
09:00+15вюв45820 0.0 1014152
12:00+15вюв56830 0.0 1015209
15:00+15вюв44820 0.0 1014151
18:00+15вюв33820 0.0 101589
21:00+15юв33803 0.0 101519
14 мая, пт
пт1400:00+15юв44800 0.0 101438
03:00+15ююв448040 0.0 101438
06:00+16юв44770 0.0 101447
09:00+16юв67815 0.0 1014148
12:00+16юв698329 0.0 1014154
15:00+17вюв69805 0.0 1013145
18:00+17юв697794 0.0 101390
21:00+16юв557443 0.0 101446
15 мая, сб
сб1500:00+16юв457613 0.0 101353
03:00+16ююв45786 0.0 101350
06:00+17ююв44760 0.0 101338
09:00+16юв58750 0.0 1013136
12:00+16вюв69710 0.0 1013157
15:00+17вюв46690 0.0 1013113
18:00+17вюв44701 0.0 101343
21:00+17ююв336323 0.0 101317